Year,Month,Day,Hour,Minute,Value (Times are PST for temperature in C)
2012,09,14,00,00,10.60
2012,09,14,00,01,10.50
2012,09,14,00,02,10.50
2012,09,14,00,03,10.50
2012,09,14,00,04,10.50
2012,09,14,00,05,10.40
2012,09,14,00,06,10.40
2012,09,14,00,07,10.40
2012,09,14,00,08,10.40
2012,09,14,00,09,10.40
2012,09,14,00,10,10.40
2012,09,14,00,11,10.40
2012,09,14,00,12,10.30
2012,09,14,00,13,10.30
2012,09,14,00,18,10.20
2012,09,14,00,19,10.20
2012,09,14,00,20,10.20
2012,09,14,00,21,10.20
2012,09,14,00,22,10.20
2012,09,14,00,23,10.10
2012,09,14,00,24,10.10
2012,09,14,00,25,10.10
2012,09,14,00,26,10.10
2012,09,14,00,27,10.00
2012,09,14,00,28,10.00
2012,09,14,00,29,10.00
2012,09,14,00,30,9.90
2012,09,14,00,31,9.90
2012,09,14,00,32,9.90
2012,09,14,00,33,9.90
2012,09,14,00,34,9.90
2012,09,14,00,35,9.90
2012,09,14,00,36,9.90
2012,09,14,00,37,9.80
2012,09,14,00,38,9.80
2012,09,14,00,39,9.80
2012,09,14,00,40,9.80
2012,09,14,00,41,9.80
2012,09,14,00,42,9.80
2012,09,14,00,43,9.70
2012,09,14,00,44,9.70
2012,09,14,00,45,9.70
2012,09,14,00,46,9.70
2012,09,14,00,47,9.70
2012,09,14,00,48,9.70
2012,09,14,00,49,9.60
2012,09,14,00,50,9.60
2012,09,14,00,51,9.60
2012,09,14,00,52,9.60
2012,09,14,00,53,9.60
2012,09,14,00,54,9.60
2012,09,14,00,55,9.60
2012,09,14,00,56,9.60
2012,09,14,00,57,9.60
2012,09,14,00,58,9.60
2012,09,14,00,59,9.50
2012,09,14,01,00,9.50
2012,09,14,01,01,9.50
2012,09,14,01,02,9.50
2012,09,14,01,03,9.40
2012,09,14,01,04,9.40
2012,09,14,01,05,9.40
2012,09,14,01,06,9.40
2012,09,14,01,07,9.30
2012,09,14,01,08,9.30
2012,09,14,01,09,9.30
2012,09,14,01,10,9.30
2012,09,14,01,11,9.20
2012,09,14,01,12,9.20
2012,09,14,01,13,9.20
2012,09,14,01,14,9.20
2012,09,14,01,15,9.20
2012,09,14,01,16,9.20
2012,09,14,01,17,9.20
2012,09,14,01,18,9.10
2012,09,14,01,19,9.10
2012,09,14,01,20,9.10
2012,09,14,01,21,9.10
2012,09,14,01,22,9.10
2012,09,14,01,23,9.10
2012,09,14,01,24,9.10
2012,09,14,01,25,9.00
2012,09,14,01,26,9.00
2012,09,14,01,27,9.00
2012,09,14,01,28,9.00
2012,09,14,01,29,8.90
2012,09,14,01,30,8.90
2012,09,14,01,31,8.90
2012,09,14,01,32,8.90
2012,09,14,01,33,8.90
2012,09,14,01,34,8.90
2012,09,14,01,35,8.90
2012,09,14,01,36,8.90
2012,09,14,01,37,8.80
2012,09,14,01,38,8.80
2012,09,14,01,39,8.80
2012,09,14,01,40,8.80
2012,09,14,01,41,8.80
2012,09,14,01,42,8.80
2012,09,14,01,43,8.90
2012,09,14,01,44,8.80
2012,09,14,01,45,8.80
2012,09,14,01,46,8.80
2012,09,14,01,47,8.80
2012,09,14,01,48,8.80
2012,09,14,01,49,8.80
2012,09,14,01,50,8.80
2012,09,14,01,51,8.80
2012,09,14,01,52,8.80
2012,09,14,01,53,8.80
2012,09,14,01,54,8.80
2012,09,14,01,55,8.70
2012,09,14,01,56,8.70
2012,09,14,01,57,8.70
2012,09,14,01,58,8.70
2012,09,14,01,59,8.70
2012,09,14,02,00,8.60
2012,09,14,02,01,8.60
2012,09,14,02,02,8.60
2012,09,14,02,03,8.60
2012,09,14,02,04,8.60
2012,09,14,02,05,8.60
2012,09,14,02,06,8.60
2012,09,14,02,07,8.60
2012,09,14,02,08,8.60
2012,09,14,02,09,8.60
2012,09,14,02,10,8.60
2012,09,14,02,11,8.60
2012,09,14,02,12,8.60
2012,09,14,02,13,8.60
2012,09,14,02,14,8.60
2012,09,14,02,15,8.60
2012,09,14,02,16,8.60
2012,09,14,02,17,8.60
2012,09,14,02,18,8.50
2012,09,14,02,19,8.50
2012,09,14,02,20,8.50
2012,09,14,02,21,8.50
2012,09,14,02,22,8.50
2012,09,14,02,23,8.50
2012,09,14,02,24,8.50
2012,09,14,02,25,8.50
2012,09,14,02,26,8.40
2012,09,14,02,27,8.40
2012,09,14,02,28,8.40
2012,09,14,02,29,8.40
2012,09,14,02,30,8.40
2012,09,14,02,31,8.40
2012,09,14,02,32,8.40
2012,09,14,02,33,8.40
2012,09,14,02,34,8.30
2012,09,14,02,35,8.30
2012,09,14,02,36,8.30
2012,09,14,02,37,8.30
2012,09,14,02,38,8.30
2012,09,14,02,39,8.30
2012,09,14,02,40,8.20
2012,09,14,02,41,8.20
2012,09,14,02,42,8.20
2012,09,14,02,43,8.20
2012,09,14,02,44,8.20
2012,09,14,02,45,8.20
2012,09,14,02,46,8.20
2012,09,14,02,47,8.20
2012,09,14,02,48,8.20
2012,09,14,02,49,8.20
2012,09,14,02,50,8.20
2012,09,14,02,51,8.20
2012,09,14,02,52,8.20
2012,09,14,02,53,8.20
2012,09,14,02,54,8.20
2012,09,14,02,55,8.20
2012,09,14,02,56,8.20
2012,09,14,02,57,8.20
2012,09,14,02,58,8.20
2012,09,14,02,59,8.20
2012,09,14,03,00,8.20
2012,09,14,03,01,8.20
2012,09,14,03,02,8.20
2012,09,14,03,03,8.20
2012,09,14,03,04,8.20
2012,09,14,03,05,8.20
2012,09,14,03,06,8.20
2012,09,14,03,07,8.20
2012,09,14,03,08,8.10
2012,09,14,03,09,8.10
2012,09,14,03,10,8.10
2012,09,14,03,11,8.10
2012,09,14,03,12,8.10
2012,09,14,03,13,8.00
2012,09,14,03,14,8.00
2012,09,14,03,15,8.00
2012,09,14,03,16,8.00
2012,09,14,03,17,8.00
2012,09,14,03,18,7.90
2012,09,14,03,19,7.90
2012,09,14,03,20,7.90
2012,09,14,03,21,7.90
2012,09,14,03,22,7.90
2012,09,14,03,23,7.90
2012,09,14,03,24,7.90
2012,09,14,03,25,7.90
2012,09,14,03,26,7.80
2012,09,14,03,27,7.80
2012,09,14,03,28,7.80
2012,09,14,03,29,7.80
2012,09,14,03,30,7.80
2012,09,14,03,31,7.80
2012,09,14,03,32,7.80
2012,09,14,03,33,7.80
2012,09,14,03,34,7.80
2012,09,14,03,35,7.80
2012,09,14,03,36,7.80
2012,09,14,03,37,7.80
2012,09,14,03,38,7.80
2012,09,14,03,39,7.80
2012,09,14,03,40,7.80
2012,09,14,03,41,7.80
2012,09,14,03,42,7.80
2012,09,14,03,43,7.80
2012,09,14,03,44,7.80
2012,09,14,03,45,7.70
2012,09,14,03,46,7.70
2012,09,14,03,47,7.70
2012,09,14,03,48,7.70
2012,09,14,03,49,7.70
2012,09,14,03,50,7.70
2012,09,14,03,51,7.70
2012,09,14,03,52,7.70
2012,09,14,03,53,7.60
2012,09,14,03,54,7.60
2012,09,14,03,55,7.60
2012,09,14,03,56,7.60
2012,09,14,03,57,7.60
2012,09,14,03,58,7.60
2012,09,14,03,59,7.60
2012,09,14,04,00,7.60
2012,09,14,04,01,7.50
2012,09,14,04,02,7.50
2012,09,14,04,03,7.50
2012,09,14,04,04,7.50
2012,09,14,04,05,7.50
2012,09,14,04,06,7.40
2012,09,14,04,07,7.40
2012,09,14,04,08,7.40
2012,09,14,04,09,7.40
2012,09,14,04,10,7.40
2012,09,14,04,11,7.40
2012,09,14,04,12,7.40
2012,09,14,04,13,7.40
2012,09,14,04,14,7.40
2012,09,14,04,15,7.30
2012,09,14,04,16,7.30
2012,09,14,04,17,7.30
2012,09,14,04,18,7.30
2012,09,14,04,19,7.30
2012,09,14,04,20,7.30
2012,09,14,04,21,7.30
2012,09,14,04,22,7.30
2012,09,14,04,23,7.30
2012,09,14,04,24,7.30
2012,09,14,04,25,7.30
2012,09,14,04,26,7.30
2012,09,14,04,27,7.30
2012,09,14,04,28,7.30
2012,09,14,04,29,7.30
2012,09,14,04,30,7.30
2012,09,14,04,31,7.30
2012,09,14,04,32,7.30
2012,09,14,04,33,7.30
2012,09,14,04,34,7.30
2012,09,14,04,35,7.30
2012,09,14,04,36,7.30
2012,09,14,04,37,7.30
2012,09,14,04,38,7.30
2012,09,14,04,39,7.30
2012,09,14,04,40,7.30
2012,09,14,04,41,7.20
2012,09,14,04,42,7.20
2012,09,14,04,43,7.20
2012,09,14,04,44,7.20
2012,09,14,04,45,7.20
2012,09,14,04,46,7.20
2012,09,14,04,47,7.20
2012,09,14,04,48,7.20
2012,09,14,04,49,7.10
2012,09,14,04,50,7.10
2012,09,14,04,51,7.10
2012,09,14,04,52,7.10
2012,09,14,04,53,7.10
2012,09,14,04,54,7.10
2012,09,14,04,55,7.00
2012,09,14,04,56,7.00
2012,09,14,04,57,7.00
2012,09,14,04,58,7.00
2012,09,14,04,59,6.90
2012,09,14,05,00,6.90
2012,09,14,05,01,6.90
2012,09,14,05,02,6.90
2012,09,14,05,03,6.90
2012,09,14,05,04,6.90
2012,09,14,05,05,6.90
2012,09,14,05,06,6.80
2012,09,14,05,07,6.80
2012,09,14,05,08,6.80
2012,09,14,05,09,6.80
2012,09,14,05,10,6.80
2012,09,14,05,11,6.80
2012,09,14,05,12,6.80
2012,09,14,05,13,6.90
2012,09,14,05,14,6.90
2012,09,14,05,15,6.90
2012,09,14,05,16,6.90
2012,09,14,05,17,6.90
2012,09,14,05,18,6.90
2012,09,14,05,19,6.90
2012,09,14,05,20,6.90
2012,09,14,05,21,6.90
2012,09,14,05,22,6.90
2012,09,14,05,23,6.90
2012,09,14,05,24,6.90
2012,09,14,05,25,6.90
2012,09,14,05,26,6.90
2012,09,14,05,27,6.90
2012,09,14,05,28,6.90
2012,09,14,05,29,6.90
2012,09,14,05,30,6.90
2012,09,14,05,31,6.80
2012,09,14,05,32,6.80
2012,09,14,05,33,6.80
2012,09,14,05,34,6.80
2012,09,14,05,35,6.80
2012,09,14,05,36,6.80
2012,09,14,05,37,6.80
2012,09,14,05,38,6.80
2012,09,14,05,39,6.80
2012,09,14,05,40,6.80
2012,09,14,05,41,6.80
2012,09,14,05,42,6.70
2012,09,14,05,43,6.70
2012,09,14,05,44,6.70
2012,09,14,05,45,6.70
2012,09,14,05,46,6.70
2012,09,14,05,47,6.70
2012,09,14,05,48,6.70
2012,09,14,05,49,6.80
2012,09,14,05,50,6.80
2012,09,14,05,51,6.80
2012,09,14,05,52,6.80
2012,09,14,05,53,6.80
2012,09,14,05,54,6.80
2012,09,14,05,55,6.80
2012,09,14,05,56,6.80
2012,09,14,05,57,6.80
2012,09,14,05,58,6.80
2012,09,14,05,59,6.90
2012,09,14,06,00,6.90
2012,09,14,06,01,6.90
2012,09,14,06,02,6.90
2012,09,14,06,03,6.90
2012,09,14,06,04,6.90
2012,09,14,06,05,6.90
2012,09,14,06,06,6.80
2012,09,14,06,07,6.80
2012,09,14,06,08,6.80
2012,09,14,06,09,6.80
2012,09,14,06,10,6.80
2012,09,14,06,11,6.80
2012,09,14,06,12,6.70
2012,09,14,06,13,6.70
2012,09,14,06,14,6.70
2012,09,14,06,15,6.70
2012,09,14,06,16,6.70
2012,09,14,06,17,6.70
2012,09,14,06,18,6.70
2012,09,14,06,19,6.70
2012,09,14,06,20,6.60
2012,09,14,06,21,6.60
2012,09,14,06,22,6.60
2012,09,14,06,23,6.60
2012,09,14,06,24,6.60
2012,09,14,06,25,6.60
2012,09,14,06,26,6.60
2012,09,14,06,27,6.60
2012,09,14,06,28,6.60
2012,09,14,06,29,6.60
2012,09,14,06,30,6.60
2012,09,14,06,31,6.60
2012,09,14,06,32,6.50
2012,09,14,06,33,6.50
2012,09,14,06,34,6.50
2012,09,14,06,35,6.50
2012,09,14,06,36,6.50
2012,09,14,06,37,6.50
2012,09,14,06,38,6.50
2012,09,14,06,39,6.50
2012,09,14,06,40,6.60
2012,09,14,06,41,6.60
2012,09,14,06,42,6.60
2012,09,14,06,43,6.60
2012,09,14,06,44,6.60
2012,09,14,06,45,6.60
2012,09,14,06,46,6.70
2012,09,14,06,47,6.70
2012,09,14,06,48,6.60
2012,09,14,06,49,6.60
2012,09,14,06,50,6.60
2012,09,14,06,51,6.60
2012,09,14,06,52,6.60
2012,09,14,06,53,6.50
2012,09,14,06,54,6.50
2012,09,14,06,55,6.50
2012,09,14,06,56,6.50
2012,09,14,06,57,6.40
2012,09,14,06,58,6.40
2012,09,14,06,59,6.40
2012,09,14,07,00,6.40
2012,09,14,07,01,6.40
2012,09,14,07,02,6.40
2012,09,14,07,03,6.40
2012,09,14,07,04,6.40
2012,09,14,07,05,6.40
2012,09,14,07,06,6.40
2012,09,14,07,07,6.30
2012,09,14,07,08,6.30
2012,09,14,07,09,6.30
2012,09,14,07,10,6.30
2012,09,14,07,11,6.30
2012,09,14,07,12,6.30
2012,09,14,07,13,6.30
2012,09,14,07,14,6.30
2012,09,14,07,15,6.30
2012,09,14,07,16,6.20
2012,09,14,07,17,6.20
2012,09,14,07,18,6.30
2012,09,14,07,19,6.30
2012,09,14,07,20,6.30
2012,09,14,07,21,6.30
2012,09,14,07,22,6.30
2012,09,14,07,23,6.30
2012,09,14,07,24,6.30
2012,09,14,07,25,6.30
2012,09,14,07,26,6.30
2012,09,14,07,27,6.40
2012,09,14,07,28,6.40
2012,09,14,07,29,6.40
2012,09,14,07,30,6.40
2012,09,14,07,31,6.50
2012,09,14,07,32,6.50
2012,09,14,07,33,6.60
2012,09,14,07,34,6.60
2012,09,14,07,35,6.60
2012,09,14,07,36,6.70
2012,09,14,07,37,6.70
2012,09,14,07,38,6.70
2012,09,14,07,39,6.70
2012,09,14,07,40,6.80
2012,09,14,07,41,6.80
2012,09,14,07,42,6.80
2012,09,14,07,43,6.90
2012,09,14,07,44,6.90
2012,09,14,07,45,6.90
2012,09,14,07,46,7.00
2012,09,14,07,47,7.00
2012,09,14,07,48,7.00
2012,09,14,07,49,7.10
2012,09,14,07,50,7.10
2012,09,14,07,51,7.20
2012,09,14,07,52,7.20
2012,09,14,07,53,7.20
2012,09,14,07,54,7.30
2012,09,14,07,55,7.30
2012,09,14,07,56,7.40
2012,09,14,07,57,7.40
2012,09,14,07,58,7.50
2012,09,14,07,59,7.50
2012,09,14,08,00,7.60
2012,09,14,08,01,7.70
2012,09,14,08,02,7.70
2012,09,14,08,03,7.80
2012,09,14,08,04,7.80
2012,09,14,08,05,7.80
2012,09,14,08,06,7.90
2012,09,14,08,07,8.00
2012,09,14,08,08,8.00
2012,09,14,08,09,8.10
2012,09,14,08,10,8.20
2012,09,14,08,11,8.30
2012,09,14,08,12,8.30
2012,09,14,08,13,8.40
2012,09,14,08,14,8.50
2012,09,14,08,15,8.60
2012,09,14,08,16,8.60
2012,09,14,08,17,8.70
2012,09,14,08,18,8.90
2012,09,14,08,19,9.00
2012,09,14,08,20,9.10
2012,09,14,08,21,9.10
2012,09,14,08,22,9.20
2012,09,14,08,23,9.40
2012,09,14,08,24,9.50
2012,09,14,08,25,9.60
2012,09,14,08,26,9.70
2012,09,14,08,27,9.80
2012,09,14,08,28,9.90
2012,09,14,08,29,10.00
2012,09,14,08,30,10.10
2012,09,14,08,31,10.20
2012,09,14,08,32,10.30
2012,09,14,08,33,10.40
2012,09,14,08,34,10.50
2012,09,14,08,35,10.60
2012,09,14,08,36,10.60
2012,09,14,08,37,10.70
2012,09,14,08,38,10.80
2012,09,14,08,39,10.90
2012,09,14,08,40,11.00
2012,09,14,08,41,11.10
2012,09,14,08,42,11.20
2012,09,14,08,43,11.30
2012,09,14,08,44,11.50
2012,09,14,08,45,11.60
2012,09,14,08,46,11.70
2012,09,14,08,47,11.90
2012,09,14,08,48,12.00
2012,09,14,08,49,12.20
2012,09,14,08,50,12.40
2012,09,14,08,51,12.50
2012,09,14,08,52,12.70
2012,09,14,08,53,12.90
2012,09,14,08,54,13.00
2012,09,14,08,55,13.10
2012,09,14,08,56,13.20
2012,09,14,08,57,13.30
2012,09,14,08,58,13.50
2012,09,14,08,59,13.60
2012,09,14,09,00,13.70
2012,09,14,09,01,13.90
2012,09,14,09,02,14.10
2012,09,14,09,03,14.30
2012,09,14,09,04,14.50
2012,09,14,09,05,14.60
2012,09,14,09,06,14.80
2012,09,14,09,07,15.00
2012,09,14,09,08,15.00
2012,09,14,09,09,15.00
2012,09,14,09,10,15.00
2012,09,14,09,11,15.00
2012,09,14,09,12,15.10
2012,09,14,09,13,15.20
2012,09,14,09,14,15.30
2012,09,14,09,15,15.40
2012,09,14,09,16,15.40
2012,09,14,09,17,15.60
2012,09,14,09,18,15.60
2012,09,14,09,19,15.70
2012,09,14,09,20,15.80
2012,09,14,09,21,15.80
2012,09,14,09,22,15.90
2012,09,14,09,23,16.00
2012,09,14,09,24,16.00
2012,09,14,09,25,16.10
2012,09,14,09,26,16.20
2012,09,14,09,27,16.30
2012,09,14,09,28,16.40
2012,09,14,09,29,16.50
2012,09,14,09,30,16.60
2012,09,14,09,31,16.70
2012,09,14,09,32,16.80
2012,09,14,09,33,16.90
2012,09,14,09,34,16.90
2012,09,14,09,35,17.00
2012,09,14,09,36,17.10
2012,09,14,09,37,17.20
2012,09,14,09,38,17.30
2012,09,14,09,39,17.40
2012,09,14,09,40,17.40
2012,09,14,09,41,17.40
2012,09,14,09,42,17.50
2012,09,14,09,43,17.50
2012,09,14,09,44,17.50
2012,09,14,09,45,17.50
2012,09,14,09,46,17.60
2012,09,14,09,47,17.60
2012,09,14,09,48,17.60
2012,09,14,09,49,17.60
2012,09,14,09,50,17.70
2012,09,14,09,51,17.80
2012,09,14,09,52,17.80
2012,09,14,09,53,17.90
2012,09,14,09,54,18.00
2012,09,14,09,55,18.10
2012,09,14,09,56,18.10
2012,09,14,09,57,18.20
2012,09,14,09,58,18.30
2012,09,14,09,59,18.30
2012,09,14,10,00,18.30
2012,09,14,10,01,18.30
2012,09,14,10,02,18.30
2012,09,14,10,03,18.30
2012,09,14,10,04,18.30
2012,09,14,10,05,18.40
2012,09,14,10,06,18.40
2012,09,14,10,07,18.50
2012,09,14,10,08,18.50
2012,09,14,10,09,18.60
2012,09,14,10,10,18.70
2012,09,14,10,11,18.70
2012,09,14,10,12,18.70
2012,09,14,10,13,18.70
2012,09,14,10,14,18.70
2012,09,14,10,15,18.70
2012,09,14,10,16,18.60
2012,09,14,10,17,18.60
2012,09,14,10,18,18.70
2012,09,14,10,19,18.70
2012,09,14,10,20,18.80
2012,09,14,10,21,18.80
2012,09,14,10,22,18.80
2012,09,14,10,23,18.80
2012,09,14,10,24,18.80
2012,09,14,10,25,18.80
2012,09,14,10,26,18.90
2012,09,14,10,27,19.00
2012,09,14,10,28,19.10
2012,09,14,10,29,19.10
2012,09,14,10,30,19.20
2012,09,14,10,31,19.20
2012,09,14,10,32,19.30
2012,09,14,10,33,19.30
2012,09,14,10,34,19.30
2012,09,14,10,35,19.30
2012,09,14,10,36,19.30
2012,09,14,10,37,19.30
2012,09,14,10,38,19.40
2012,09,14,10,39,19.40
2012,09,14,10,40,19.50
2012,09,14,10,41,19.50
2012,09,14,10,42,19.50
2012,09,14,10,43,19.50
2012,09,14,10,44,19.50
2012,09,14,10,45,19.50
2012,09,14,10,46,19.50
2012,09,14,10,47,19.50
2012,09,14,10,48,19.60
2012,09,14,10,49,19.60
2012,09,14,10,50,19.70
2012,09,14,10,51,19.80
2012,09,14,10,52,19.90
2012,09,14,10,53,20.00
2012,09,14,10,54,20.10
2012,09,14,10,55,20.10
2012,09,14,10,56,20.10
2012,09,14,10,57,20.10
2012,09,14,10,58,20.10
2012,09,14,10,59,20.20
2012,09,14,11,00,20.30
2012,09,14,11,01,20.40
2012,09,14,11,02,20.30
2012,09,14,11,03,20.30
2012,09,14,11,04,20.20
2012,09,14,11,05,20.20
2012,09,14,11,06,20.30
2012,09,14,11,07,20.30
2012,09,14,11,08,20.30
2012,09,14,11,09,20.40
2012,09,14,11,10,20.50
2012,09,14,11,11,20.60
2012,09,14,11,12,20.70
2012,09,14,11,13,20.70
2012,09,14,11,14,20.80
2012,09,14,11,15,20.90
2012,09,14,11,16,21.00
2012,09,14,11,17,21.00
2012,09,14,11,18,21.10
2012,09,14,11,19,21.10
2012,09,14,11,20,21.20
2012,09,14,11,21,21.20
2012,09,14,11,22,21.30
2012,09,14,11,23,21.30
2012,09,14,11,24,21.30
2012,09,14,11,25,21.40
2012,09,14,11,26,21.40
2012,09,14,11,27,21.50
2012,09,14,11,28,21.60
2012,09,14,11,29,21.70
2012,09,14,11,30,21.70
2012,09,14,11,31,21.70
2012,09,14,11,32,21.70
2012,09,14,11,33,21.70
2012,09,14,11,34,21.80
2012,09,14,11,35,21.80
2012,09,14,11,36,21.80
2012,09,14,11,37,21.80
2012,09,14,11,38,21.80
2012,09,14,11,39,21.90
2012,09,14,11,40,21.90
2012,09,14,11,41,21.90
2012,09,14,11,42,21.90
2012,09,14,11,43,21.90
2012,09,14,11,44,22.00
2012,09,14,11,45,22.10
2012,09,14,11,46,22.10
2012,09,14,11,47,22.10
2012,09,14,11,48,22.20
2012,09,14,11,49,22.20
2012,09,14,11,50,22.10
2012,09,14,11,51,22.10
2012,09,14,11,52,22.10
2012,09,14,11,53,22.10
2012,09,14,11,54,22.20
2012,09,14,11,55,22.30
2012,09,14,11,56,22.20
2012,09,14,11,57,22.20
2012,09,14,11,58,22.20
2012,09,14,11,59,22.30
2012,09,14,12,00,22.30
2012,09,14,12,01,22.30
2012,09,14,12,02,22.20
2012,09,14,12,03,22.30
2012,09,14,12,04,22.30
2012,09,14,12,05,22.30
2012,09,14,12,06,22.30
2012,09,14,12,07,22.20
2012,09,14,12,08,22.10
2012,09,14,12,09,22.00
2012,09,14,12,10,21.80
2012,09,14,12,11,21.60
2012,09,14,12,12,21.50
2012,09,14,12,13,21.40
2012,09,14,12,14,21.30
2012,09,14,12,15,21.30
2012,09,14,12,16,21.20
2012,09,14,12,17,21.10
2012,09,14,12,18,21.10
2012,09,14,12,19,21.10
2012,09,14,12,20,21.20
2012,09,14,12,21,21.20
2012,09,14,12,22,21.10
2012,09,14,12,23,21.10
2012,09,14,12,24,21.00
2012,09,14,12,25,20.90
2012,09,14,12,26,20.90
2012,09,14,12,27,20.90
2012,09,14,12,28,21.00
2012,09,14,12,29,21.10
2012,09,14,12,30,21.20
2012,09,14,12,31,21.30
2012,09,14,12,32,21.40
2012,09,14,12,33,21.50
2012,09,14,12,34,21.60
2012,09,14,12,35,21.70
2012,09,14,12,36,21.80
2012,09,14,12,37,21.80
2012,09,14,12,38,21.80
2012,09,14,12,39,21.90
2012,09,14,12,40,22.00
2012,09,14,12,41,22.10
2012,09,14,12,42,22.10
2012,09,14,12,43,22.10
2012,09,14,12,44,22.10
2012,09,14,12,45,22.10
2012,09,14,12,46,22.10
2012,09,14,12,47,22.10
2012,09,14,12,48,22.00
2012,09,14,12,49,21.90
2012,09,14,12,50,21.80
2012,09,14,12,51,21.70
2012,09,14,12,52,21.70
2012,09,14,12,53,21.70
2012,09,14,12,54,21.70
2012,09,14,12,55,21.60
2012,09,14,12,56,21.60
2012,09,14,12,57,21.50
2012,09,14,12,58,21.40
2012,09,14,12,59,21.40
2012,09,14,13,00,21.50
2012,09,14,13,01,21.50
2012,09,14,13,02,21.40
2012,09,14,13,03,21.40
2012,09,14,13,04,21.50
2012,09,14,13,05,21.40
2012,09,14,13,06,21.40
2012,09,14,13,07,21.30
2012,09,14,13,08,21.30
2012,09,14,13,09,21.30
2012,09,14,13,10,21.40
2012,09,14,13,11,21.40
2012,09,14,13,12,21.40
2012,09,14,13,13,21.40
2012,09,14,13,14,21.40
2012,09,14,13,15,21.40
2012,09,14,13,16,21.40
2012,09,14,13,17,21.50
2012,09,14,13,18,21.40
2012,09,14,13,19,21.40
2012,09,14,13,20,21.40
2012,09,14,13,21,21.40
2012,09,14,13,22,21.40
2012,09,14,13,23,21.40
2012,09,14,13,24,21.40
2012,09,14,13,25,21.50
2012,09,14,13,26,21.50
2012,09,14,13,27,21.50
2012,09,14,13,28,21.60
2012,09,14,13,29,21.80
2012,09,14,13,30,21.90
2012,09,14,13,31,21.90
2012,09,14,13,32,22.00
2012,09,14,13,33,22.00
2012,09,14,13,34,21.90
2012,09,14,13,35,21.80
2012,09,14,13,36,21.80
2012,09,14,13,37,21.80
2012,09,14,13,38,21.80
2012,09,14,13,39,21.80
2012,09,14,13,40,21.80
2012,09,14,13,41,21.90
2012,09,14,13,42,21.90
2012,09,14,13,43,21.80
2012,09,14,13,44,21.80
2012,09,14,13,45,21.80
2012,09,14,13,46,21.90
2012,09,14,13,47,22.00
2012,09,14,13,48,22.10
2012,09,14,13,49,22.10
2012,09,14,13,50,22.10
2012,09,14,13,51,22.00
2012,09,14,13,52,22.00
2012,09,14,13,53,22.10
2012,09,14,13,54,22.20
2012,09,14,13,55,22.30
2012,09,14,13,56,22.20
2012,09,14,13,57,22.20
2012,09,14,13,58,22.20
2012,09,14,13,59,22.20
2012,09,14,14,00,22.20
2012,09,14,14,01,22.20
2012,09,14,14,02,22.20
2012,09,14,14,03,22.20
2012,09,14,14,04,22.20
2012,09,14,14,05,22.20
2012,09,14,14,06,22.30
2012,09,14,14,07,22.30
2012,09,14,14,08,22.30
2012,09,14,14,09,22.30
2012,09,14,14,10,22.40
2012,09,14,14,11,22.40
2012,09,14,14,12,22.40
2012,09,14,14,13,22.30
2012,09,14,14,14,22.30
2012,09,14,14,15,22.30
2012,09,14,14,16,22.20
2012,09,14,14,17,22.20
2012,09,14,14,18,22.20
2012,09,14,14,19,22.30
2012,09,14,14,20,22.30
2012,09,14,14,21,22.20
2012,09,14,14,22,22.20
2012,09,14,14,23,22.20
2012,09,14,14,24,22.20
2012,09,14,14,25,22.30
2012,09,14,14,26,22.30
2012,09,14,14,27,22.30
2012,09,14,14,28,22.30
2012,09,14,14,29,22.30
2012,09,14,14,30,22.40
2012,09,14,14,31,22.40
2012,09,14,14,32,22.30
2012,09,14,14,33,22.30
2012,09,14,14,34,22.30
2012,09,14,14,35,22.30
2012,09,14,14,36,22.50
2012,09,14,14,37,22.80
2012,09,14,14,38,23.00
2012,09,14,14,39,23.20
2012,09,14,14,40,23.30
2012,09,14,14,41,23.40
2012,09,14,14,42,23.40
2012,09,14,14,43,23.50
2012,09,14,14,44,23.50
2012,09,14,14,45,23.40
2012,09,14,14,46,23.40
2012,09,14,14,47,23.50
2012,09,14,14,48,23.60
2012,09,14,14,49,23.70
2012,09,14,14,50,23.80
2012,09,14,14,51,23.80
2012,09,14,14,52,23.80
2012,09,14,14,53,23.80
2012,09,14,14,54,23.70
2012,09,14,14,55,23.60
2012,09,14,14,56,23.50
2012,09,14,14,57,23.30
2012,09,14,14,58,23.30
2012,09,14,14,59,23.30
2012,09,14,15,00,23.40
2012,09,14,15,01,23.60
2012,09,14,15,02,23.70
2012,09,14,15,03,23.70
2012,09,14,15,04,23.70
2012,09,14,15,05,23.80
2012,09,14,15,06,23.90
2012,09,14,15,07,23.90
2012,09,14,15,08,24.00
2012,09,14,15,09,23.90
2012,09,14,15,10,23.70
2012,09,14,15,11,23.60
2012,09,14,15,12,23.60
2012,09,14,15,13,23.60
2012,09,14,15,14,23.60
2012,09,14,15,15,23.60
2012,09,14,15,16,23.60
2012,09,14,15,17,23.70
2012,09,14,15,18,23.60
2012,09,14,15,19,23.50
2012,09,14,15,20,23.30
2012,09,14,15,21,23.20
2012,09,14,15,22,23.20
2012,09,14,15,23,23.20
2012,09,14,15,24,23.30
2012,09,14,15,25,23.40
2012,09,14,15,26,23.40
2012,09,14,15,27,23.30
2012,09,14,15,28,23.30
2012,09,14,15,29,23.40
2012,09,14,15,30,23.40
2012,09,14,15,31,23.40
2012,09,14,15,32,23.30
2012,09,14,15,33,23.20
2012,09,14,15,34,23.20
2012,09,14,15,35,23.10
2012,09,14,15,36,23.10
2012,09,14,15,37,23.10
2012,09,14,15,38,23.10
2012,09,14,15,39,23.10
2012,09,14,15,40,23.20
2012,09,14,15,41,23.30
2012,09,14,15,42,23.30
2012,09,14,15,43,23.40
2012,09,14,15,44,23.60
2012,09,14,15,45,23.70
2012,09,14,15,46,23.70
2012,09,14,15,47,23.60
2012,09,14,15,48,23.50
2012,09,14,15,49,23.40
2012,09,14,15,50,23.30
2012,09,14,15,51,23.30
2012,09,14,15,52,23.40
2012,09,14,15,53,23.40
2012,09,14,15,54,23.50
2012,09,14,15,55,23.60
2012,09,14,15,56,23.70
2012,09,14,15,57,23.80
2012,09,14,15,58,23.90
2012,09,14,15,59,23.90
2012,09,14,16,00,24.00
2012,09,14,16,01,24.10
2012,09,14,16,02,24.20
2012,09,14,16,03,24.20
2012,09,14,16,04,24.20
2012,09,14,16,05,24.20
2012,09,14,16,06,24.20
2012,09,14,16,07,24.20
2012,09,14,16,08,24.20
2012,09,14,16,09,24.20
2012,09,14,16,10,24.20
2012,09,14,16,11,24.30
2012,09,14,16,12,24.40
2012,09,14,16,13,24.40
2012,09,14,16,14,24.40
2012,09,14,16,15,24.20
2012,09,14,16,16,24.00
2012,09,14,16,17,24.00
2012,09,14,16,18,24.00
2012,09,14,16,19,24.00
2012,09,14,16,20,23.90
2012,09,14,16,21,23.90
2012,09,14,16,22,23.80
2012,09,14,16,23,23.80
2012,09,14,16,24,23.80
2012,09,14,16,25,23.90
2012,09,14,16,26,24.00
2012,09,14,16,27,24.10
2012,09,14,16,28,24.10
2012,09,14,16,29,24.20
2012,09,14,16,30,24.20
2012,09,14,16,31,24.20
2012,09,14,16,32,24.30
2012,09,14,16,33,24.30
2012,09,14,16,34,24.30
2012,09,14,16,35,24.30
2012,09,14,16,36,24.30
2012,09,14,16,37,24.20
2012,09,14,16,38,24.20
2012,09,14,16,39,24.10
2012,09,14,16,40,24.10
2012,09,14,16,41,24.00
2012,09,14,16,42,23.90
2012,09,14,16,43,23.80
2012,09,14,16,44,23.70
2012,09,14,16,45,23.60
2012,09,14,16,46,23.50
2012,09,14,16,47,23.50
2012,09,14,16,48,23.40
2012,09,14,16,49,23.40
2012,09,14,16,50,23.40
2012,09,14,16,51,23.50
2012,09,14,16,52,23.50
2012,09,14,16,53,23.60
2012,09,14,16,54,23.70
2012,09,14,16,55,23.80
2012,09,14,16,56,23.80
2012,09,14,16,57,23.60
2012,09,14,16,58,23.60
2012,09,14,16,59,23.60
2012,09,14,17,00,23.70
2012,09,14,17,01,23.70
2012,09,14,17,02,23.50
2012,09,14,17,03,23.40
2012,09,14,17,04,23.30
2012,09,14,17,05,23.20
2012,09,14,17,06,23.20
2012,09,14,17,07,23.30
2012,09,14,17,08,23.30
2012,09,14,17,09,23.40
2012,09,14,17,10,23.50
2012,09,14,17,11,23.50
2012,09,14,17,12,23.60
2012,09,14,17,13,23.70
2012,09,14,17,14,23.70
2012,09,14,17,15,23.70
2012,09,14,17,16,23.80
2012,09,14,17,17,23.80
2012,09,14,17,18,23.80
2012,09,14,17,19,23.70
2012,09,14,17,20,23.70
2012,09,14,17,21,23.70
2012,09,14,17,22,23.70
2012,09,14,17,23,23.70
2012,09,14,17,24,23.80
2012,09,14,17,25,23.80
2012,09,14,17,26,23.90
2012,09,14,17,27,23.90
2012,09,14,17,28,23.90
2012,09,14,17,29,24.00
2012,09,14,17,30,24.00
2012,09,14,17,31,24.10
2012,09,14,17,32,24.10
2012,09,14,17,33,24.10
2012,09,14,17,34,24.10
2012,09,14,17,35,24.10
2012,09,14,17,36,24.10
2012,09,14,17,37,24.10
2012,09,14,17,38,24.20
2012,09,14,17,39,24.20
2012,09,14,17,40,24.20
2012,09,14,17,41,24.20
2012,09,14,17,42,24.10
2012,09,14,17,43,24.10
2012,09,14,17,44,24.00